This is the latest recevied weather packets stored in our database for station/object GAPWX. If no packets are shown the sender has not sent any weather packets the latest 10 day(s).
| Time | Temp. | Humidity | Pressure | Rain* | Wind** | Luminosity | Snow |
|---|---|---|---|---|---|---|---|
| 1777392830 | 7.78° C | 63% | 1017.6 hPa | 0.25 mm | - | - | - |
| 1777391025 | 5.56° C | 75% | 1017.5 hPa | 0.25 mm | - | - | - |
| 1777390722 | 5° C | 75% | 1017.6 hPa | 0.25 mm | - | - | - |
| 1777389517 | 2.22° C | 77% | 1017.7 hPa | 0.25 mm | - | - | - |
| 1777388913 | 2.22° C | 77% | 1017.6 hPa | 0.25 mm | - | - | - |
| 1777384996 | -0.56° C | 77% | 1017 hPa | 0 mm | - | - | - |
| 1777383789 | -0.56° C | 77% | 1016.8 hPa | 0 mm | - | - | - |
| 1777383489 | -0.56° C | 77% | 1016.8 hPa | 0 mm | - | - | - |
| 1777383189 | -0.56° C | 77% | 1016.8 hPa | 0 mm | - | - | - |
| 1777382584 | -0.56° C | 77% | 1016.8 hPa | 0 mm | - | - | - |
| 1777382284 | -0.56° C | 77% | 1016.8 hPa | 0 mm | - | - | - |
| 1777381982 | -1.11° C | 77% | 1016.8 hPa | 0 mm | - | - | - |
| 1777381682 | -0.56° C | 77% | 1016.8 hPa | 0 mm | - | - | - |
| 1777381078 | -1.11° C | 77% | 1016.6 hPa | 0 mm | - | - | - |
| 1777380475 | -1.11° C | 77% | 1016.5 hPa | 0 mm | - | - | - |
| 1777380173 | -1.11° C | 77% | 1016.5 hPa | 0 mm | - | - | - |
| 1777379571 | -1.11° C | 77% | 1016.5 hPa | 0 mm | - | - | - |
| 1777379270 | -0.56° C | 77% | 1016.7 hPa | 0 mm | - | - | - |
| 1777378968 | -1.11° C | 77% | 1016.6 hPa | 0 mm | - | - | - |
| 1777378667 | -1.11° C | 76% | 1016.6 hPa | 0 mm | - | - | - |
| 1777377762 | -1.11° C | 76% | 1016.4 hPa | 0 mm | - | - | - |
* Rain since midnight (hover to see other rain measurements)
** Current wind speed in m/s (hover to see current wind gust speed)